Location: Peterborough
(44.3091°N, 78.3197°W)
Time: 16:33:33
(UTC-04:00)

Transit 4A - Pass Details

Date: 31 March 2023
Orbit: 864 x 980 km, 66.8° (Epoch: 04 June)

Event Time Altitude Azimuth Distance (km) Brightness Sun altitude
Rises 04:26:04 0° 152° (SSE) 3,430 10.8 -25.8°
Reaches altitude 10° 04:30:12 10° 123° (ESE) 2,508 10.4 -25.2°
Maximum altitude 04:32:21 12° 101° (E) 2,364 10.6 -24.9°
Drops below altitude 10° 04:34:31 10° 79° (E) 2,530 11.1 -24.6°
Sets 04:38:42 0° 51° (NE) 3,497 12.3 -24.0°
